EW2561 Weather Reports


Display with metric or nautical units.
time (UTC)temp
F
wind
direction
speed
MPH
gust
MPH
rain 1hr
in
rain 24hr
in
rain mn
in
humidity
%
barometer
mb
20260508073529 55 106 1.0 4.0 0.00 0.00 0.00 86 1014.7
20260508073027 55 18 0.0 0.0 0.00 0.00 0.00 86 1014.6
20260508072526 54 122 0.0 0.0 0.00 0.00 0.00 86 1014.6
20260508072002 54 82 0.0 0.0 0.00 0.00 0.00 87 1014.5
20260508071501 54 74 0.0 0.0 0.00 0.00 0.00 88 1014.5
20260508071002 54 33 0.0 0.0 0.00 0.00 0.00 88 1014.6
20260508070654 54 114 0.0 0.0 0.00 0.00 0.00 88 1014.5
20260508065930 53 103 0.0 0.0 0.00 0.00 0.00 88 1014.5
20260508065431 53 83 0.0 0.0 0.00 0.00 0.00 89 1014.4
20260508064930 53 94 0.0 0.0 0.00 0.00 0.00 89 1014.4
20260508064643 53 72 0.0 0.0 0.00 0.00 0.00 89 1014.4
20260508063901 53 70 0.0 0.0 0.00 0.00 0.00 91 1014.2
20260508063850 52 77 0.0 0.0 0.00 0.00 0.00 92 1014.2
20260508062830 52 87 0.0 0.0 0.00 0.00 0.00 93 1014.2
20260508062326 52 82 0.0 0.0 0.00 0.00 0.00 93 1014.2
20260508061803 51 94 0.0 0.0 0.00 0.00 0.00 94 1014.2
20260508061302 51 99 0.0 0.0 0.00 0.00 0.00 95 1014.1
20260508060802 51 99 0.0 0.0 0.00 0.00 0.00 96 1014.1
20260508060301 50 99 0.0 0.0 0.00 0.00 0.00 96 1014.0
20260508055809 50 84 0.0 0.0 0.00 0.00 0.00 96 1014.0
20260508055718 50 117 0.0 0.0 0.00 0.00 0.00 97 1014.0
20260508054736 50 46 0.0 0.0 0.00 0.00 0.00 97 1014.0
20260508054229 50 46 0.0 0.0 0.00 0.00 0.00 97 1014.0
20260508053945 49 46 0.0 0.0 0.00 0.00 0.00 97 1014.0
20260508053223 49 46 0.0 0.0 0.00 0.00 0.00 97 1014.0
20260508052721 49 46 0.0 0.0 0.00 0.00 0.00 97 1013.8
20260508052212 49 46 0.0 0.0 0.00 0.00 0.00 97 1014.0
20260508051704 48 46 0.0 0.0 0.00 0.00 0.00 97 1013.8
20260508051205 48 46 0.0 0.0 0.00 0.00 0.00 96 1013.8
20260508050704 48 46 0.0 0.0 0.00 0.00 0.00 96 1013.7
20260508050204 48 46 0.0 0.0 0.00 0.00 0.00 96 1013.7
20260508045632 48 46 0.0 0.0 0.00 0.00 0.00 96 1013.7
20260508045359 48 46 0.0 0.0 0.00 0.00 0.00 96 1013.7
20260508044850 48 46 0.0 0.0 0.00 0.00 0.00 96 1013.7
20260508044323 48 46 0.0 0.0 0.00 0.00 0.00 96 1013.6
20260508043603 47 46 0.0 0.0 0.00 0.00 0.00 96 1013.6
20260508043251 47 46 0.0 0.0 0.00 0.00 0.00 96 1013.6
20260508042527 47 46 0.0 0.0 0.00 0.00 0.00 96 1013.6
20260508042002 47 46 0.0 0.0 0.00 0.00 0.00 96 1013.6
20260508041504 47 46 0.0 0.0 0.00 0.00 0.00 96 1013.6
20260508041003 47 46 0.0 0.0 0.00 0.00 0.00 96 1013.6
20260508040431 47 46 0.0 0.0 0.00 0.00 0.00 96 1013.6
20260508035923 47 46 0.0 0.0 0.00 0.00 0.00 95 1013.5
20260508035403 47 46 0.0 0.0 0.00 0.00 0.00 95 1013.4
20260508034902 47 46 0.0 0.0 0.00 0.00 0.00 95 1013.4
20260508034556 47 46 0.0 0.0 0.00 0.00 0.00 95 1013.4
20260508034051 47 46 0.0 0.0 0.00 0.00 0.00 95 1013.4
20260508033331 48 46 0.0 0.0 0.00 0.00 0.00 95 1013.4
20260508033059 48 46 0.0 0.0 0.00 0.00 0.00 95 1013.4
20260508032331 47 46 0.0 0.0 0.00 0.00 0.00 95 1013.5
20260508031829 47 46 0.0 0.0 0.00 0.00 0.00 95 1013.5
20260508031332 47 46 0.0 0.0 0.00 0.00 0.00 95 1013.5
20260508030829 47 46 0.0 0.0 0.00 0.00 0.00 95 1013.4
20260508030331 47 46 0.0 0.0 0.00 0.00 0.00 95 1013.5
20260508025830 47 46 0.0 0.0 0.00 0.00 0.00 95 1013.5
20260508025815 47 46 0.0 0.0 0.00 0.00 0.00 95 1013.5
20260508024829 47 46 0.0 0.0 0.00 0.00 0.00 94 1013.5
20260508024302 48 46 0.0 0.0 0.00 0.00 0.00 94 1013.5
20260508023803 48 46 0.0 0.0 0.00 0.00 0.00 94 1013.4
20260508023302 48 46 0.0 0.0 0.00 0.00 0.00 94 1013.5
20260508022801 48 46 0.0 0.0 0.00 0.00 0.00 94 1013.5
20260508022232 48 46 0.0 0.0 0.00 0.00 0.00 94 1013.5
20260508021725 48 46 0.0 0.0 0.00 0.00 0.00 94 1013.6
20260508021224 48 46 0.0 0.0 0.00 0.00 0.00 94 1013.5
20260508020931 48 46 0.0 0.0 0.00 0.00 0.00 93 1013.4
20260508020202 48 46 0.0 0.0 0.00 0.00 0.00 93 1013.4
20260508020149 48 46 0.0 0.0 0.00 0.00 0.00 94 1013.5
20260508015431 49 46 0.0 0.0 0.00 0.00 0.00 93 1013.5
20260508014704 49 46 0.0 0.0 0.00 0.00 0.00 93 1013.4
20260508014202 49 46 0.0 0.0 0.00 0.00 0.00 93 1013.3
20260508013709 49 46 0.0 0.0 0.00 0.00 0.00 93 1013.3
20260508013201 49 46 0.0 0.0 0.00 0.00 0.00 93 1013.3
20260508012927 49 46 0.0 0.0 0.00 0.00 0.00 93 1013.3
20260508012202 50 46 0.0 0.0 0.00 0.00 0.00 93 1013.4
20260508011646 50 46 0.0 0.0 0.00 0.00 0.00 93 1013.4
20260508011133 50 46 0.0 0.0 0.00 0.00 0.00 94 1013.4
20260508010855 50 46 0.0 0.0 0.00 0.00 0.00 93 1013.4
20260508010105 50 46 0.0 0.0 0.00 0.00 0.00 93 1013.4
20260508005602 50 46 0.0 0.0 0.00 0.00 0.00 93 1013.4
20260508005253 50 46 0.0 0.0 0.00 0.00 0.00 93 1013.4
20260508004532 50 46 0.0 0.0 0.00 0.00 0.00 93 1013.5
20260508004252 51 46 0.0 0.0 0.00 0.00 0.00 93 1013.5
20260508003530 51 46 0.0 0.0 0.00 0.00 0.00 93 1013.4
20260508003025 51 46 0.0 0.0 0.00 0.00 0.00 93 1013.5
20260508002503 51 46 0.0 0.0 0.00 0.00 0.00 93 1013.4
20260508001931 51 46 0.0 0.0 0.00 0.00 0.00 93 1013.4
20260508001432 51 46 0.0 0.0 0.00 0.00 0.00 93 1013.5
20260508001124 51 46 0.0 0.0 0.00 0.00 0.00 93 1013.5
20260508000405 51 46 0.0 0.0 0.00 0.00 0.00 93 1013.5
20260507235902 51 46 0.0 0.0 0.00 0.00 0.00 93 1013.5
20260507235402 51 46 0.0 0.0 0.00 0.00 0.00 93 1013.5
20260507234903 51 46 0.0 0.0 0.00 0.00 0.00 93 1013.6
20260507234822 51 46 0.0 0.0 0.00 0.00 0.00 93 1013.6
20260507233829 51 46 0.0 0.0 0.00 0.00 0.00 93 1013.7
20260507233332 51 46 0.0 0.0 0.00 0.00 0.00 93 1013.7
20260507232830 51 46 0.0 0.0 0.00 0.00 0.00 93 1013.8
20260507232325 51 46 0.0 0.0 0.00 0.00 0.00 93 1013.7
20260507231824 51 46 0.0 0.0 0.00 0.00 0.00 93 1013.8
20260507231323 51 46 0.0 0.0 0.00 0.00 0.00 93 1013.8
20260507230803 51 46 0.0 0.0 0.00 0.00 0.00 92 1013.8
20260507230302 51 46 0.0 0.0 0.00 0.00 0.00 92 1013.8
20260507230023 51 46 0.0 0.0 0.00 0.00 0.00 92 1013.7
20260507225232 51 46 0.0 0.0 0.00 0.00 0.00 92 1013.7
20260507224729 51 46 0.0 0.0 0.00 0.00 0.00 92 1013.7
20260507224203 51 46 0.0 0.0 0.00 0.00 0.00 92 1013.6
20260507223632 51 46 0.0 0.0 0.00 0.00 0.00 92 1013.6
20260507223130 51 46 0.0 0.0 0.00 0.00 0.00 92 1013.6
20260507222629 51 46 0.0 0.0 0.00 0.00 0.00 92 1013.7
20260507222132 51 46 0.0 0.0 0.00 0.00 0.00 91 1013.7
20260507221632 51 46 0.0 0.0 0.00 0.00 0.00 91 1013.7
20260507221130 51 46 0.0 0.0 0.00 0.00 0.00 91 1013.7
20260507220604 51 46 0.0 0.0 0.00 0.00 0.00 91 1013.7
20260507215604 51 46 0.0 0.0 0.00 0.00 0.00 90 1013.7
20260507215102 51 46 0.0 0.0 0.00 0.00 0.00 90 1013.7
20260507214602 52 46 0.0 0.0 0.00 0.00 0.00 90 1013.7
20260507214031 52 46 0.0 0.0 0.00 0.00 0.00 90 1013.7
20260507213758 52 46 0.0 0.0 0.00 0.00 0.00 90 1013.6
20260507213005 52 46 0.0 0.0 0.00 0.00 0.00 90 1013.6
20260507212504 52 46 0.0 0.0 0.00 0.00 0.00 90 1013.6
20260507211932 52 46 0.0 0.0 0.00 0.00 0.00 89 1013.6
20260507211431 52 46 0.0 0.0 0.00 0.00 0.00 89 1013.6
20260507210930 52 46 0.0 0.0 0.00 0.00 0.00 89 1013.6
20260507210430 52 46 0.0 0.0 0.00 0.00 0.00 89 1013.6
20260507205931 52 46 0.0 0.0 0.00 0.00 0.00 89 1013.5
20260507205654 52 46 0.0 0.0 0.00 0.00 0.00 89 1013.5
20260507204929 52 46 0.0 0.0 0.00 0.00 0.00 89 1013.5
20260507204428 52 46 0.0 0.0 0.00 0.00 0.00 88 1013.5
20260507204126 52 46 0.0 0.0 0.00 0.00 0.00 88 1013.5
20260507203331 53 46 0.0 0.0 0.00 0.00 0.00 88 1013.4
20260507202830 53 46 0.0 0.0 0.00 0.00 0.00 88 1013.4
20260507202325 53 46 0.0 0.0 0.00 0.00 0.00 88 1013.3
20260507201817 53 46 0.0 0.0 0.00 0.00 0.00 87 1013.3
20260507201315 53 46 0.0 0.0 0.00 0.00 0.00 87 1013.3
20260507200803 53 46 0.0 0.0 0.00 0.00 0.00 87 1013.2
20260507200302 53 46 0.0 0.0 0.00 0.00 0.00 87 1013.2
20260507195803 53 46 0.0 0.0 0.00 0.00 0.00 87 1013.1
20260507195233 53 46 0.0 0.0 0.00 0.00 0.00 86 1013.1
20260507194732 53 46 0.0 0.0 0.00 0.00 0.00 86 1013.1
20260507194456 53 46 0.0 0.0 0.00 0.00 0.00 85 1013.1
20260507193731 54 46 0.0 0.0 0.00 0.00 0.00 85 1013.0
20260507193229 54 46 0.0 0.0 0.00 0.00 0.00 85 1013.0
20260507192724 54 46 0.0 0.0 0.00 0.00 0.00 84 1013.0
20260507192219 54 46 0.0 0.0 0.00 0.00 0.00 84 1012.9
20260507191704 54 46 0.0 0.0 0.00 0.00 0.00 84 1012.9
20260507191204 54 46 0.0 0.0 0.00 0.00 0.00 84 1012.9
20260507190632 55 46 0.0 0.0 0.00 0.00 0.00 84 1012.9
20260507190132 55 46 0.0 0.0 0.00 0.00 0.00 84 1012.9
20260507185603 55 46 0.0 0.0 0.00 0.00 0.00 83 1012.9
20260507185102 55 46 0.0 0.0 0.00 0.00 0.00 83 1012.9
20260507184604 55 46 0.0 0.0 0.00 0.00 0.00 83 1012.9
20260507184102 55 46 0.0 0.0 0.00 0.00 0.00 82 1012.9
20260507183832 55 46 0.0 0.0 0.00 0.00 0.00 81 1012.9
20260507183102 55 46 0.0 0.0 0.00 0.00 0.00 81 1012.8
20260507182603 56 46 0.0 0.0 0.00 0.00 0.00 81 1012.8
20260507182031 56 46 0.0 0.0 0.00 0.00 0.00 80 1012.8
20260507181531 56 46 0.0 0.0 0.00 0.00 0.00 79 1012.8
20260507181032 56 46 0.0 0.0 0.00 0.00 0.00 78 1012.8
20260507180531 57 46 0.0 1.0 0.00 0.00 0.00 77 1012.8
20260507180004 57 46 0.0 1.0 0.00 0.00 0.00 76 1012.8
20260507175504 58 46 0.0 1.0 0.00 0.00 0.00 76 1012.7
20260507175223 58 46 0.0 1.0 0.00 0.00 0.00 74 1012.7
20260507174432 58 46 0.0 0.0 0.00 0.00 0.00 72 1012.6
20260507173932 58 46 0.0 1.0 0.00 0.00 0.00 70 1012.6
20260507173424 59 46 0.0 2.0 0.00 0.00 0.00 69 1012.6
20260507172920 59 46 0.0 2.0 0.00 0.00 0.00 69 1012.7
20260507172404 59 46 0.0 2.0 0.00 0.00 0.00 65 1012.6
20260507171903 59 359 1.0 2.0 0.00 0.00 0.00 63 1012.6
20260507171402 59 25 1.0 3.0 0.00 0.00 0.00 62 1012.6
20260507170833 59 25 1.0 3.0 0.00 0.00 0.00 62 1012.5
20260507170317 59 1 1.0 2.0 0.00 0.00 0.00 62 1012.5
20260507165804 59 71 1.0 2.0 0.00 0.00 0.00 61 1012.5
20260507165306 59 1 1.0 3.0 0.00 0.00 0.00 61 1012.5
20260507164803 59 58 0.0 3.0 0.00 0.00 0.00 61 1012.5
20260507164231 60 89 0.0 2.0 0.00 0.00 0.00 62 1012.5
20260507163732 60 89 0.0 2.0 0.00 0.00 0.00 61 1012.5
20260507163205 60 4 1.0 3.0 0.00 0.00 0.00 62 1012.5
20260507162703 60 15 1.0 3.0 0.00 0.00 0.00 60 1012.5
20260507162202 60 91 1.0 4.0 0.00 0.00 0.00 59 1012.6
20260507161702 60 117 1.0 4.0 0.00 0.00 0.00 59 1012.6
20260507161204 60 359 1.0 2.0 0.00 0.00 0.00 59 1012.5
20260507160702 60 35 1.0 4.0 0.00 0.00 0.00 59 1012.5
20260507160644 60 1 1.0 4.0 0.00 0.00 0.00 59 1012.6
20260507155921 60 108 1.0 5.0 0.00 0.00 0.00 59 1012.5
20260507155145 60 349 1.0 5.0 0.00 0.00 0.00 58 1012.5
20260507154641 61 4 1.0 3.0 0.00 0.00 0.00 60 1012.5
20260507154136 61 25 1.0 4.0 0.00 0.00 0.00 58 1012.4
20260507154125 61 52 1.0 4.0 0.00 0.00 0.00 56 1012.4
20260507153126 61 56 1.0 4.0 0.00 0.00 0.00 58 1012.4
20260507152603 61 1 1.0 4.0 0.00 0.00 0.00 57 1012.3
20260507152102 61 111 1.0 4.0 0.00 0.00 0.00 56 1012.3
20260507151604 61 65 2.0 3.0 0.00 0.00 0.00 55 1012.3
20260507151033 61 53 1.0 4.0 0.00 0.00 0.00 55 1012.3
20260507150531 61 59 1.0 3.0 0.00 0.00 0.00 57 1012.3
20260507150006 61 12 1.0 3.0 0.00 0.00 0.00 55 1012.3
20260507145727 62 25 1.0 6.0 0.00 0.00 0.00 55 1012.3
20260507144932 62 359 1.0 5.0 0.00 0.00 0.00 57 1012.2
20260507144650 62 3 1.0 4.0 0.00 0.00 0.00 53 1012.2
20260507143932 62 12 1.0 4.0 0.00 0.00 0.00 53 1012.2
20260507143430 62 0 1.0 3.0 0.00 0.00 0.00 53 1012.2
20260507142926 62 4 0.0 3.0 0.00 0.00 0.00 55 1012.2
20260507142651 62 66 0.0 3.0 0.00 0.00 0.00 56 1012.2
20260507141916 62 326 1.0 3.0 0.00 0.00 0.00 56 1012.2
20260507141403 62 31 1.0 3.0 0.00 0.00 0.00 54 1012.3
20260507140904 62 0 1.0 2.0 0.00 0.00 0.00 55 1012.3
20260507140332 62 251 0.0 2.0 0.00 0.00 0.00 62 1012.3
20260507140051 62 127 1.0 4.0 0.00 0.00 0.00 56 1012.4
20260507135531 63 259 1.0 4.0 0.00 0.00 0.00 54 1012.4
20260507135027 63 345 2.0 5.0 0.00 0.00 0.00 51 1012.4
20260507134309 63 139 2.0 5.0 0.00 0.00 0.00 51 1012.4
20260507133737 63 290 1.0 3.0 0.00 0.00 0.00 54 1012.4
20260507133237 62 262 1.0 5.0 0.00 0.00 0.00 55 1012.5
20260507132710 62 350 2.0 5.0 0.00 0.00 0.00 54 1012.6
20260507132147 62 118 1.0 5.0 0.00 0.00 0.00 55 1012.6
20260507131635 62 27 1.0 4.0 0.00 0.00 0.00 54 1012.6
20260507131132 63 6 2.0 4.0 0.00 0.00 0.00 52 1012.6
20260507130631 63 86 2.0 5.0 0.00 0.00 0.00 54 1012.6
20260507130131 64 283 1.0 5.0 0.00 0.00 0.00 55 1012.5
20260507125632 63 250 1.0 3.0 0.00 0.00 0.00 55 1012.5
20260507125104 63 75 1.0 5.0 0.00 0.00 0.00 53 1012.5
20260507124830 62 246 1.0 4.0 0.00 0.00 0.00 55 1012.5
20260507124103 62 41 2.0 6.0 0.00 0.00 0.00 55 1012.5
20260507123531 62 283 2.0 5.0 0.00 0.01 0.00 54 1012.5
20260507123252 63 19 2.0 6.0 0.00 0.01 0.00 52 1012.4
20260507122526 63 55 1.0 5.0 0.00 0.01 0.00 55 1012.4
20260507122504 62 133 1.0 3.0 0.00 0.01 0.00 54 1012.5
20260507121518 62 150 1.0 4.0 0.00 0.01 0.00 50 1012.5
20260507121013 61 1 1.0 4.0 0.00 0.01 0.00 51 1012.5
20260507120949 61 20 2.0 5.0 0.00 0.01 0.00 54 1012.5
20260507120005 61 316 2.0 5.0 0.00 0.02 0.00 57 1012.5
20260507115502 61 27 2.0 6.0 0.00 0.02 0.00 60 1012.6
20260507115002 60 33 2.0 6.0 0.00 0.02 0.00 62 1012.6
20260507114731 60 46 2.0 5.0 0.00 0.02 0.00 64 1012.6
20260507114002 60 86 2.0 5.0 0.00 0.02 0.00 62 1012.6
20260507113503 60 98 2.0 5.0 0.00 0.02 0.00 60 1012.6
20260507113155 60 45 1.0 5.0 0.00 0.02 0.00 65 1012.7
20260507112431 60 1 1.0 5.0 0.00 0.02 0.00 66 1012.6
20260507111924 59 89 2.0 5.0 0.00 0.02 0.00 62 1012.6
20260507111424 59 97 2.0 5.0 0.00 0.02 0.00 60 1012.6
20260507110903 59 101 2.0 5.0 0.00 0.03 0.00 64 1012.7
20260507110411 59 40 2.0 4.0 0.00 0.03 0.00 66 1012.7
20260507105833 59 115 1.0 5.0 0.00 0.03 0.00 66 1012.6
20260507105332 58 133 1.0 5.0 0.00 0.03 0.00 69 1012.7
20260507104826 58 113 2.0 4.0 0.00 0.04 0.00 71 1012.6
20260507104807 57 68 2.0 6.0 0.00 0.04 0.00 70 1012.7
20260507103823 58 1 2.0 6.0 0.00 0.04 0.00 70 1012.8
20260507103323 58 359 2.0 4.0 0.00 0.05 0.00 71 1012.7
20260507102814 58 300 1.0 4.0 0.00 0.05 0.00 75 1012.7
20260507102755 58 25 1.0 4.0 0.00 0.05 0.00 76 1012.7
20260507101802 57 125 2.0 5.0 0.00 0.05 0.00 73 1012.7
20260507101307 57 78 1.0 5.0 0.00 0.06 0.00 75 1012.7
20260507100737 57 65 1.0 4.0 0.00 0.06 0.00 77 1012.7
20260507100236 56 270 1.0 5.0 0.00 0.06 0.00 79 1012.6
20260507095734 56 286 1.0 5.0 0.00 0.06 0.00 78 1012.7
20260507095216 55 151 1.0 4.0 0.00 0.06 0.00 79 1012.6
20260507094708 55 336 1.0 4.0 0.00 0.06 0.00 77 1012.6
20260507094207 55 178 1.0 3.0 0.00 0.06 0.00 78 1012.6
20260507093632 55 12 1.0 4.0 0.00 0.07 0.00 81 1012.6
20260507093357 55 162 1.0 4.0 0.00 0.07 0.00 80 1012.6
20260507092631 54 57 1.0 5.0 0.00 0.08 0.00 82 1012.6
20260507092104 54 20 1.0 5.0 0.00 0.09 0.00 82 1012.6
20260507091603 53 103 1.0 4.0 0.00 0.09 0.00 83 1012.5
20260507091032 53 255 1.0 4.0 0.00 0.09 0.00 85 1012.6
20260507090532 53 38 1.0 4.0 0.00 0.09 0.00 84 1012.5
20260507090006 53 257 1.0 4.0 0.00 0.09 0.00 84 1012.5
20260507085503 53 278 1.0 4.0 0.00 0.09 0.00 85 1012.5
20260507085002 52 31 2.0 4.0 0.00 0.09 0.00 85 1012.4
20260507084727 52 359 1.0 4.0 0.00 0.10 0.00 84 1012.4
20260507084010 52 273 1.0 3.0 0.00 0.10 0.00 85 1012.4
20260507083433 52 34 1.0 4.0 0.00 0.10 0.00 86 1012.3
20260507082931 52 1 1.0 3.0 0.00 0.11 0.00 86 1012.3
20260507082703 52 302 2.0 5.0 0.00 0.11 0.00 86 1012.3
20260507081931 52 334 1.0 5.0 0.00 0.11 0.00 86 1012.3
20260507081402 51 40 1.0 3.0 0.00 0.12 0.00 87 1012.3
20260507080903 51 300 0.0 2.0 0.00 0.12 0.00 87 1012.3
20260507080402 51 359 1.0 3.0 0.00 0.12 0.00 88 1012.2
20260507075907 51 289 2.0 5.0 0.00 0.12 0.00 87 1012.2
20260507075404 51 20 1.0 5.0 0.00 0.12 0.00 87 1012.1
20260507074904 51 11 0.0 3.0 0.00 0.13 0.00 88 1012.1
20260507074402 51 49 1.0 3.0 0.00 0.13 0.00 89 1011.9
20260507073831 51 314 1.0 3.0 0.00 0.13 0.00 90 1012.0